Regional Weather Roundup
Issued by NWS

Home | Current Version | Previous Version | Text Only | Print | Product List | Glossary On
Versions: 1 2 3 4 5 6 7 8 9 10 11 12 13 14 15 16 17 18 19 20 21 22 23 24 25 26 27 28 29 30 31 32 33 34 35 36 37 38 39 40 41 42 43 44 45 46 47 48 49 50
000
ASUS43 KOAX 242110
RWRNE

WEATHER ROUNDUP FOR NEBRASKA
NATIONAL WEATHER SERVICE OMAHA NE
400 PM CDT THU APR 24 2014

NOTES: SATELLITE DATA IS BEING USED TO AUGMENT CLOUD COVER ABOVE
       12000 FEET.
       "FAIR" INDICATES FEW OR NO CLOUDS BELOW 12,000 FEET WITH NO
       SIGNIFICANT WEATHER AND/OR OBSTRUCTIONS TO VISIBILITY.

  * THESE STATIONS DO NOT REPORT WEATHER SUCH AS RAIN...SNOW OR FOG.

NEZ001>004-019>022-054>056-242200-
NEBRASKA PANHANDLE

CITY           SKY/WX    TMP DP  RH WIND       PRES   REMARKS
SCOTTSBLUFF    PTSUNNY   66  18  15 W20G26    29.85F
ALLIANCE       MOSUNNY   63  16  16 W21       29.84F
CHADRON        SUNNY     66  20  17 W18G24    29.81F
KIMBALL        PTSUNNY   63  12  14 W12G25    29.87F
SIDNEY         PTSUNNY   63  13  14 NW10G25   29.88F
$$

NEZ057>060-069>072-079>082-242200-
SOUTHWEST NEBRASKA

CITY           SKY/WX    TMP DP  RH WIND       PRES   REMARKS
NORTH PLATTE   SUNNY     68  22  17 NW15      29.82F
IMPERIAL       SUNNY     66  10  11 W9G29     29.86F
LEXINGTON      SUNNY     70  16  12 NW17G26   29.82F
MCCOOK         SUNNY     70  12  10 NW16G25   29.85F
OGALLALA       MOSUNNY   67  10  10 W8G23     29.85F
$$

NEZ005>010-023>029-035>040-094-242200-
NORTH CENTRAL NEBRASKA

CITY           SKY/WX    TMP DP  RH WIND       PRES   REMARKS
VALENTINE      SUNNY     68  18  14 NW17      29.78F
AINSWORTH      SUNNY     68  17  14 NW17G35   29.79F
BROKEN BOW     SUNNY     69  14  12 NW22G30   29.80F
O`NEILL        SUNNY     69  13  11 NW17G33   29.77F
ORD            SUNNY     70  17  13 NW17G28   29.77F
THEDFORD       SUNNY     69  13  11 NW13G23   29.82F
$$

NEZ041-046>049-061>064-073>077-083>087-242200-
SOUTH CENTRAL NEBRASKA

CITY           SKY/WX    TMP DP  RH WIND       PRES   REMARKS
GRAND ISLAND   SUNNY     69  26  20 NW17G29   29.79F
AURORA         MOSUNNY   68  29  23 N17G32    29.78F
HASTINGS       MOSUNNY   69  28  21 N21G26    29.80F
HEBRON         CLOUDY    66  35  32 N10       29.79S
HOLDREGE       SUNNY     69  23  17 N12G18    29.82F
KEARNEY *      SUNNY     70  25  18 NW18G26   29.81F
YORK           PTSUNNY   66  34  30 N12G17    29.77S
$$

NEZ011>018-030>034-042>045-242200-
NORTHEAST NEBRASKA

CITY           SKY/WX    TMP DP  RH WIND       PRES   REMARKS
NORFOLK        SUNNY     68  24  19 NW26G35   29.73S
ALBION         SUNNY     67  26  20 NW21G29   29.76F
BLAIR          CLOUDY    62  45  53 N16G22    29.73F
COLUMBUS *     MOSUNNY   66  37  34 NW22G30   29.75F
FREMONT        PTSUNNY   65  37  34 N13G22    29.74F
TEKAMAH        CLOUDY    66  43  43 N16       29.73F
$$

NEZ050>053-065>068-078-088>093-242200-
SOUTHEAST NEBRASKA

CITY           SKY/WX    TMP DP  RH WIND       PRES   REMARKS
LINCOLN        PTSUNNY   66  38  35 N18       29.76F
OMAHA EPPLEY   CLOUDY    61  45  55 N18G26    29.73F
BEATRICE       CLOUDY    64  40  41 N17       29.77S
FALLS CITY     CLOUDY    59  49  69 NW14G26   29.70S
NEBRASKA CITY  CLOUDY    60  47  64 N17G26    29.74R
PLATTSMOUTH    CLOUDY    61  46  58 N15       29.73F
$$

NEZ044-045-051>053-067-242200-
OMAHA AREA

CITY           SKY/WX    TMP DP  RH WIND       PRES   REMARKS
OMAHA EPPLEY   CLOUDY    61  45  55 N18G26    29.73F
BLAIR          CLOUDY    62  45  53 N16G22    29.73F
FREMONT        PTSUNNY   65  37  34 N13G22    29.74F
MILLARD        CLOUDY    62  43  49 NW14G22   29.73F
OFFUTT AFB     CLOUDY    61  47  60 N17G24    29.73F
PLATTSMOUTH    CLOUDY    61  46  58 N15       29.73F
WAHOO          FAIR      64  38  37 N21G26    29.74F
$$



USA.gov is the U.S. government's official web portal to all federal, state and local government web resources and services.